SCP
0 0 0 0 -0 -0 -0 -0 -0 -0 -0 -0 -0 -0 -0 -0 -0 -0 -0 -0 -0 -0 -0 -0 -0 -0 -0 -0 -0 -0 -0 -0 -0 -0 -0 -0 -0 -0 -0 -0 0 0 0
0 0 0 -0 -0 -0 0 0 -0 -0 -0 -0 -0 -0 -0 -0 -0 -0 -0 -0 -0 -0 -0 -0 -0 -0 -0 -0 -0 -0 -0 -0 -0 0 0 -0 -0 -0 -0 -0 0 0 0
-0 0 0 0 0 -0 -0 0 -0 -0 -0 -0 -0 -0 -0 -0 -0 -0 -0 -0 -0 -0 -0 -0 -0 -0 -0 -0 -0 -0 -0 -0 -0 -0 -0 -0 -0 -0 -0 -0 -0 -0 -0
0 0 0 -0 -0 -0 -0 0 -0 -0 -0 -0 -0 -0 -0 -0 -0 -0 -0 -0 -0 -0 -0 -0 -0 -0 -0 -0 -0 -0 -0 -0 -0 -0 -0 -0 -0 -0 -0 -0 -0 -0 -0
0 0 0 0 -0 -0 0 -0 0 0 0 -0 -0 -0 -0 -0 -0 -0 -0 -0 -0 -0 -0 -0 -0 -0 -0 -0 -0 -0 -0 -0 -0 -0 -0 -0 0 -0 -0 -0 -0 0 0
0 0 0 0 0 0 -0 0 0 0 -0 -0 -0 -0 -0 -0 -0 -0 -0 -0 -0 -0 -0 -0 -0 -0 -0 -0 -0 -0 -0 -0 -0 -0 -0 -0 -0 -0 -0 0 0 0 0
0 0 0 0 0 0 0 0 0 0 0 -0 -0 -0 -0 -0 -0 -0 -0 -0 -0 -0 -0 -0 -0 -0 -0 -0 -0 -0 -0 -0 -0 -0 -0 0 0 -0 0 0 0 0 0
-0 0 0 0 0 0 0 0 0 -0 0 -0 -0 -0 -0 -0 -0 -0 -0 -0 -0 -0 -0 -0 -0 -0 -0 -0 -0 -0 -0 -0 0 0 0 0 0 0 0 0 0 0 0
0 0 0 0 0 0 0 0 0 -0 -0 -0 -0 -0 -0 -0 -0 -0 -0 -0 -0 -0 -0 -0 -0 -0 -0 -0 -0 -0 -0 0 0 0 0 0 0 0 0 0 0 0 0
-0 0 0 0 0 0 0 0 0 -0 -0 -0 -0 0 -0 -0 -0 -0 -0 -0 -0 -0 -0 -0 -0 -0 -0 -0 -0 0 0 0 0 0 0 0 0 0 0 0 0 0 0
-0 -0 -0 0 0 0 0 0 -0 -0 -0 -0 -0 -0 0 0 -0 -0 -0 -0 -0 -0 -0 -0 -0 -0 -0 0 0 0 0 0 0 0 0 0 0 0 0 0 0 0 0
0 -0 -0 0 0 0 0 0 0 0 0 0 0 0 0 0 0 -0 -0 -0 -0 -0 -0 -0 -0 -0 0 0 0 0 0 0 0 0 0 0 0 0 0 0 0 0 0
0 -0 -0 0 0 0 0 0 0 0 0 0 0 0 0 0 0 -0 -0 -0 -0 0 0 0 0 0 0 0 0 0 0 0 0 0 0 0 0 0 0 0 0 0 0
-0 -0 -0 0 0 0 0 0 0 0 0 0 0 0 0 0 0 0 0 0 0 0 0 0 0 0 0 0 0 0 0 0 0 0 0 0 0 0 0 0 0 0 0
0 0 -0 0 0 0 0 0 0 0 0 0 0 0 0 0 0 0 0 0 0 0 0 0 0 0 0 0 0 0 0 0 0 0 0 0 0 0 0 0 0 0 0
0 0 0 0 0 0 0 0 0 0 0 0 0 0 0 0 0 0 0 0 0 0 0 0 0 0 0 0 0 0 0 0 0 0 0 0 0 0 0 0 0 0 0
0 0 0 0 0 0 0 0 0 0 0 0 0 0 0 0 0 0 0 0 0 0 0 0 0 0 0 0 0 0 0 0 0 0 0 0 0 0 0 0 0 0 0
0 0 0 0 0 0 0 0 0 0 0 0 0 0 0 0 0 0 0 0 0 0 0 0 0 0 0 0 0 0 0 0 0 0 0 0 0 0 0 0 0 0 0
0 0 0 0 0 0 0 0 0 0 0 0 0 0 0 0 0 0 0 0 0 0 0 0 0 0 0 0 0 0 0 0 0 0 0 0 0 0 0 0 0 0 0
0 0 0 0 0 0 0 0 0 0 0 0 0 0 0 0 0 0 0 0 0 0 0 0 0 0 0 0 0 0 0 0 0 0 0 0 0 0 0 0 0 0 0
0 0 0 0 0 0 0 0 0 0 0 0 0 0 0 0 0 0 0 0 0 0 0 0 0 0 0 0 0 0 0 0 0 0 0 0 0 0 0 0 0 0 0
0 0 0 0 0 0 0 0 0 0 0 0 0 0 0 0 0 0 0 0 0 0 0 0 0 0 0 0 0 0 0 0 0 0 0 0 0 0 0 0 0 0 0
0 0 0 0 0 0 0 0 0 0 0 0 0 0 0 0 0 0 0 0 0 0 0 0 0 0 0 0 0 0 0 0 0 0 0 0 0 0 0 0 0 0 0
0 0 0 0 0 0 0 0 0 0 0 0 0 0 0 0 0 0 0 0 0 0 0 0 0 0 0 0 0 0 0 0 0 0 0 0 0 0 0 0 0 0 0
0 0 0 -0 -0 0 0 0 0 0 0 0 0 0 0 0 0 0 0 0 0 0 0 0 0 0 0 0 0 0 0 0 0 0 0 0 0 0 0 0 0 0 0
0 0 0 0 0 0 0 -0 0 0 0 0 0 0 0 0 0 0 0 0 0 0 0 0 0 0 0 0 0 0 0 0 0 0 0 0 0 0 0 0 0 0 0
Wind_Speed_500mb
35 28 27 27 24 26 29 28 27 26 26 21 18 13 9 8 11 15 23 31 36 37 35 30 35 35 35 34 34 32 34 32 33 36 40 42 43 42 45 41 43 42 42
37 31 29 25 24 24 23 21 21 19 17 15 12 9 8 10 18 20 30 32 34 34 37 30 35 37 36 34 34 33 33 33 35 36 37 39 41 39 37 39 34 36 40
35 32 29 24 22 23 21 20 19 16 13 10 10 10 10 19 22 25 30 33 32 27 35 30 32 34 36 35 38 35 35 36 36 36 34 41 42 39 37 36 38 36 36
36 30 24 22 21 20 21 21 16 8 6 7 10 11 15 21 26 29 31 31 27 32 31 28 31 34 36 36 37 36 36 36 34 33 36 38 37 35 34 35 34 34 34
35 23 22 20 22 22 23 20 13 6 3 3 10 13 20 23 27 28 29 29 27 30 30 30 31 33 34 35 34 34 34 33 31 31 34 39 37 33 35 36 36 36 35
32 20 16 19 22 24 24 17 10 6 4 7 11 19 24 26 27 26 29 30 25 30 29 24 32 32 31 31 31 31 31 30 28 28 34 34 35 29 31 31 30 30 29
28 22 17 18 21 24 20 17 14 9 15 16 15 18 24 24 24 22 25 25 23 25 24 26 30 29 28 26 28 30 28 26 26 25 31 31 29 27 26 26 26 25 25
24 21 17 17 19 22 20 19 15 16 24 19 13 18 22 24 23 22 20 19 19 20 22 25 26 25 23 23 25 25 24 23 24 23 26 28 23 23 23 22 22 21 20
28 20 17 17 20 21 22 23 20 16 28 26 22 18 21 21 20 20 18 17 17 18 19 21 21 21 20 21 21 21 20 20 20 21 21 23 24 20 19 20 17 18 17
28 24 18 17 19 20 22 26 22 26 31 28 30 23 16 17 21 18 16 16 15 15 17 18 17 16 15 16 16 16 15 15 16 18 19 20 14 9 9 12 14 17 14
34 28 23 20 20 20 23 26 29 30 29 25 20 20 21 19 19 16 13 12 11 12 13 13 12 11 10 11 10 10 10 10 11 12 14 14 12 13 9 9 12 13 10
38 33 28 25 22 22 27 26 27 20 16 14 14 12 16 18 17 14 11 11 11 11 10 9 7 5 5 5 4 4 4 4 5 7 9 11 13 15 10 7 7 9 10
35 33 31 29 25 23 24 23 22 22 22 20 19 18 18 16 16 15 13 11 10 8 8 6 4 3 2 3 4 4 4 5 4 6 8 10 11 12 5 6 8 12 9
40 32 31 30 29 25 24 22 20 20 22 21 19 17 17 15 14 14 14 13 11 11 10 8 7 9 10 10 11 11 11 11 10 10 10 11 12 13 8 8 11 17 17
43 36 35 34 31 28 26 23 22 20 20 21 20 18 17 15 14 15 15 14 14 14 13 11 11 12 14 15 16 16 17 17 17 17 17 15 14 14 14 16 15 15 23
46 42 39 37 34 32 28 26 23 23 22 23 23 21 20 20 18 16 16 17 17 17 16 15 16 17 17 18 20 21 22 23 24 24 24 22 21 20 19 21 21 21 29
49 44 43 40 37 38 32 31 30 28 27 26 24 26 24 21 20 19 19 20 19 18 19 20 20 22 23 23 23 26 27 28 29 30 31 30 28 27 25 25 26 28 33
52 50 46 44 40 39 38 35 33 31 32 31 30 30 29 26 24 24 23 21 21 22 22 23 24 26 27 28 27 29 32 34 35 36 38 37 35 32 30 30 29 30 34
53 53 52 50 46 42 39 38 35 36 36 35 36 35 34 33 32 30 27 25 27 28 28 27 29 31 31 32 32 34 36 40 40 42 43 43 40 37 36 38 35 34 35
54 54 55 55 52 48 45 44 43 43 45 43 42 42 39 39 38 36 35 32 33 35 35 34 34 35 37 37 39 41 42 44 45 47 48 46 47 46 44 46 44 46 42
57 59 60 60 60 59 59 58 58 57 51 48 47 43 45 45 43 44 42 40 41 44 41 41 42 43 45 42 46 48 50 49 50 51 52 53 50 53 51 51 53 50 48
56 59 65 65 65 65 64 62 61 57 56 54 50 49 47 48 49 49 49 47 47 50 50 49 50 51 51 49 50 51 48 50 53 48 50 49 57 57 57 59 63 62 56
63 59 60 63 67 66 67 67 64 66 65 63 63 58 57 54 53 54 55 56 56 55 57 56 55 56 59 58 54 52 28 30 41 48 51 49 49 55 59 62 69 69 63
72 63 59 60 61 64 69 71 72 71 70 65 62 54 53 54 56 58 58 61 63 62 63 63 61 62 62 66 64 65 67 68 60 53 53 59 58 67 64 62 63 66 69
73 73 73 69 67 67 66 68 70 74 68 67 61 57 54 51 51 52 55 61 63 65 66 67 67 68 70 70 71 72 73 72 74 80 75 64 68 82 81 67 65 71 72
74 71 72 80 79 78 73 69 69 69 67 69 62 57 54 51 49 48 47 49 51 55 59 62 62 66 70 73 74 76 78 77 73 75 84 93 93 97 89 85 81 80 81
Wind_Direction_500mb
155 148 137 132 131 128 125 125 122 124 122 119 112 104 83 62 73 82 96 93 88 89 91 81 87 88 88 90 101 94 84 79 81 75 78 80 79 84 85 73 61 70 78
154 150 146 143 144 139 135 135 132 128 121 112 96 67 51 84 100 99 104 94 92 88 94 88 83 84 90 93 93 84 81 80 81 80 79 77 78 80 95 88 80 80 72
160 156 148 151 150 147 147 143 136 129 119 113 89 69 82 104 107 103 105 101 98 98 88 91 84 88 91 87 84 86 85 84 82 77 76 77 70 70 76 79 79 74 72
162 160 159 159 163 160 152 146 143 129 99 88 88 89 107 111 108 108 106 104 99 93 96 91 85 84 86 84 85 86 86 83 80 79 78 78 78 76 70 68 68 70 73
162 165 163 168 166 162 157 157 160 156 109 95 98 116 109 107 110 112 111 107 100 95 98 91 90 88 87 88 90 89 85 82 81 78 76 75 75 64 63 63 63 62 63
167 173 170 175 168 167 171 173 179 191 189 146 124 125 120 112 111 114 118 112 109 102 103 91 90 91 92 91 90 90 87 81 74 70 75 75 72 67 61 60 60 59 58
174 173 174 186 183 183 186 185 184 158 143 125 116 118 125 117 111 110 112 115 113 105 106 93 88 90 94 98 96 89 83 76 69 68 74 70 66 63 58 56 56 53 50
185 178 180 188 183 181 180 179 183 151 142 143 129 122 128 122 116 109 108 109 104 99 96 95 98 100 101 98 96 90 84 76 67 59 70 74 64 57 54 53 51 47 45
187 193 188 183 176 182 179 183 186 175 155 154 149 132 126 124 118 110 107 105 102 106 110 106 103 104 107 106 98 92 83 75 63 56 57 74 65 49 41 37 45 41 27
194 190 195 186 186 187 191 194 184 165 181 180 173 157 140 139 126 118 116 118 123 126 116 112 110 106 106 110 102 94 84 69 58 52 46 61 58 46 35 29 13 8 13
190 195 195 195 194 186 184 190 185 167 176 185 174 180 165 138 134 131 128 128 127 124 119 113 114 110 110 107 101 98 83 67 53 44 41 37 29 37 37 19 10 10 11
194 195 196 198 195 191 183 187 187 186 180 182 165 161 166 154 149 149 152 151 145 140 134 127 129 129 123 128 126 109 88 62 33 21 20 14 9 11 37 27 5 358 343
197 201 200 200 198 198 191 184 186 190 193 195 186 177 177 173 171 171 174 167 160 156 159 171 191 216 239 240 241 238 244 266 299 321 336 346 350 352 31 352 330 323 295
204 206 206 209 203 200 200 197 194 193 193 193 194 188 182 183 182 189 191 186 182 188 191 205 241 264 270 268 264 258 262 268 277 289 296 314 325 331 317 300 302 310 272
208 209 209 212 212 206 208 207 207 201 200 199 197 192 192 195 199 200 204 205 203 208 214 227 244 259 267 271 272 271 265 269 273 279 283 292 297 301 299 286 293 287 273
212 214 212 215 215 213 214 214 213 214 208 206 204 199 198 203 207 209 213 216 218 222 230 245 255 261 267 272 276 275 271 270 272 277 280 284 287 287 290 286 290 275 283
215 217 218 217 217 216 216 219 220 219 219 215 209 210 212 212 215 217 219 224 227 233 242 252 259 263 267 271 273 276 276 276 276 277 279 280 283 284 287 289 290 291 295
221 221 221 221 222 220 220 222 223 224 224 224 221 219 219 221 224 225 228 230 236 241 247 254 261 266 270 273 276 277 278 277 278 278 278 279 281 281 284 287 284 291 297
223 225 226 227 226 225 225 225 226 227 230 229 229 229 226 228 231 234 235 234 239 246 251 256 261 267 272 274 277 275 277 278 278 276 278 279 283 290 286 291 284 288 296
224 226 229 231 232 230 230 231 231 230 231 231 231 234 235 237 239 242 243 241 245 250 254 258 264 269 273 273 275 276 277 278 277 279 281 280 282 279 278 279 279 282 277
228 228 228 229 231 231 231 230 232 233 234 237 237 238 239 242 243 247 249 248 249 253 258 261 263 264 268 273 277 280 281 280 280 284 284 277 276 278 274 276 277 279 276
232 231 231 231 232 233 235 238 241 245 246 247 247 248 249 249 250 251 255 255 254 256 258 260 263 267 271 272 272 280 288 290 291 293 291 287 272 271 274 274 271 271 273
234 233 233 234 235 236 237 239 241 246 249 247 246 246 248 252 255 257 259 261 260 260 263 265 266 268 273 275 274 271 274 278 289 292 289 286 282 269 268 273 268 269 271
235 233 238 240 239 239 238 240 242 245 249 253 255 257 258 258 260 262 264 265 266 266 266 270 271 271 271 273 275 273 271 272 275 285 280 279 274 280 277 269 282 273 268
240 241 243 243 244 243 241 240 244 247 251 254 257 258 258 260 260 262 264 266 267 270 271 271 273 272 272 271 272 274 276 274 273 269 277 277 276 278 279 274 274 273 276
242 241 242 241 245 242 240 240 242 246 249 252 254 258 261 262 264 267 271 273 275 276 276 277 276 275 274 273 272 273 272 269 268 271 273 279 278 283 283 278 273 274 275
Wind_Speed_850mb
35 28 27 27 24 26 29 28 27 26 26 21 18 13 9 8 11 15 23 31 36 37 35 30 35 35 35 34 34 32 34 32 33 36 40 42 43 42 45 41 43 42 42
37 31 29 25 24 24 23 21 21 19 17 15 12 9 8 10 18 20 30 32 34 34 37 30 35 37 36 34 34 33 33 33 35 36 37 39 41 39 37 39 34 36 40
35 32 29 24 22 23 21 20 19 16 13 10 10 10 10 19 22 25 30 33 32 27 35 30 32 34 36 35 38 35 35 36 36 36 34 41 42 39 37 36 38 36 36
36 30 24 22 21 20 21 21 16 8 6 7 10 11 15 21 26 29 31 31 27 32 31 28 31 34 36 36 37 36 36 36 34 33 36 38 37 35 34 35 34 34 34
35 23 22 20 22 22 23 20 13 6 3 3 10 13 20 23 27 28 29 29 27 30 30 30 31 33 34 35 34 34 34 33 31 31 34 39 37 33 35 36 36 36 35
32 20 16 19 22 24 24 17 10 6 4 7 11 19 24 26 27 26 29 30 25 30 29 24 32 32 31 31 31 31 31 30 28 28 34 34 35 29 31 31 30 30 29
28 22 17 18 21 24 20 17 14 9 15 16 15 18 24 24 24 22 25 25 23 25 24 26 30 29 28 26 28 30 28 26 26 25 31 31 29 27 26 26 26 25 25
24 21 17 17 19 22 20 19 15 16 24 19 13 18 22 24 23 22 20 19 19 20 22 25 26 25 23 23 25 25 24 23 24 23 26 28 23 23 23 22 22 21 20
28 20 17 17 20 21 22 23 20 16 28 26 22 18 21 21 20 20 18 17 17 18 19 21 21 21 20 21 21 21 20 20 20 21 21 23 24 20 19 20 17 18 17
28 24 18 17 19 20 22 26 22 26 31 28 30 23 16 17 21 18 16 16 15 15 17 18 17 16 15 16 16 16 15 15 16 18 19 20 14 9 9 12 14 17 14
34 28 23 20 20 20 23 26 29 30 29 25 20 20 21 19 19 16 13 12 11 12 13 13 12 11 10 11 10 10 10 10 11 12 14 14 12 13 9 9 12 13 10
38 33 28 25 22 22 27 26 27 20 16 14 14 12 16 18 17 14 11 11 11 11 10 9 7 5 5 5 4 4 4 4 5 7 9 11 13 15 10 7 7 9 10
35 33 31 29 25 23 24 23 22 22 22 20 19 18 18 16 16 15 13 11 10 8 8 6 4 3 2 3 4 4 4 5 4 6 8 10 11 12 5 6 8 12 9
40 32 31 30 29 25 24 22 20 20 22 21 19 17 17 15 14 14 14 13 11 11 10 8 7 9 10 10 11 11 11 11 10 10 10 11 12 13 8 8 11 17 17
43 36 35 34 31 28 26 23 22 20 20 21 20 18 17 15 14 15 15 14 14 14 13 11 11 12 14 15 16 16 17 17 17 17 17 15 14 14 14 16 15 15 23
46 42 39 37 34 32 28 26 23 23 22 23 23 21 20 20 18 16 16 17 17 17 16 15 16 17 17 18 20 21 22 23 24 24 24 22 21 20 19 21 21 21 29
49 44 43 40 37 38 32 31 30 28 27 26 24 26 24 21 20 19 19 20 19 18 19 20 20 22 23 23 23 26 27 28 29 30 31 30 28 27 25 25 26 28 33
52 50 46 44 40 39 38 35 33 31 32 31 30 30 29 26 24 24 23 21 21 22 22 23 24 26 27 28 27 29 32 34 35 36 38 37 35 32 30 30 29 30 34
53 53 52 50 46 42 39 38 35 36 36 35 36 35 34 33 32 30 27 25 27 28 28 27 29 31 31 32 32 34 36 40 40 42 43 43 40 37 36 38 35 34 35
54 54 55 55 52 48 45 44 43 43 45 43 42 42 39 39 38 36 35 32 33 35 35 34 34 35 37 37 39 41 42 44 45 47 48 46 47 46 44 46 44 46 42
57 59 60 60 60 59 59 58 58 57 51 48 47 43 45 45 43 44 42 40 41 44 41 41 42 43 45 42 46 48 50 49 50 51 52 53 50 53 51 51 53 50 48
56 59 65 65 65 65 64 62 61 57 56 54 50 49 47 48 49 49 49 47 47 50 50 49 50 51 51 49 50 51 48 50 53 48 50 49 57 57 57 59 63 62 56
63 59 60 63 67 66 67 67 64 66 65 63 63 58 57 54 53 54 55 56 56 55 57 56 55 56 59 58 54 52 28 30 41 48 51 49 49 55 59 62 69 69 63
72 63 59 60 61 64 69 71 72 71 70 65 62 54 53 54 56 58 58 61 63 62 63 63 61 62 62 66 64 65 67 68 60 53 53 59 58 67 64 62 63 66 69
73 73 73 69 67 67 66 68 70 74 68 67 61 57 54 51 51 52 55 61 63 65 66 67 67 68 70 70 71 72 73 72 74 80 75 64 68 82 81 67 65 71 72
74 71 72 80 79 78 73 69 69 69 67 69 62 57 54 51 49 48 47 49 51 55 59 62 62 66 70 73 74 76 78 77 73 75 84 93 93 97 89 85 81 80 81
Wind_Direction_850mb
155 148 137 132 131 128 125 125 122 124 122 119 112 104 83 62 73 82 96 93 88 89 91 81 87 88 88 90 101 94 84 79 81 75 78 80 79 84 85 73 61 70 78
154 150 146 143 144 139 135 135 132 128 121 112 96 67 51 84 100 99 104 94 92 88 94 88 83 84 90 93 93 84 81 80 81 80 79 77 78 80 95 88 80 80 72
160 156 148 151 150 147 147 143 136 129 119 113 89 69 82 104 107 103 105 101 98 98 88 91 84 88 91 87 84 86 85 84 82 77 76 77 70 70 76 79 79 74 72
162 160 159 159 163 160 152 146 143 129 99 88 88 89 107 111 108 108 106 104 99 93 96 91 85 84 86 84 85 86 86 83 80 79 78 78 78 76 70 68 68 70 73
162 165 163 168 166 162 157 157 160 156 109 95 98 116 109 107 110 112 111 107 100 95 98 91 90 88 87 88 90 89 85 82 81 78 76 75 75 64 63 63 63 62 63
167 173 170 175 168 167 171 173 179 191 189 146 124 125 120 112 111 114 118 112 109 102 103 91 90 91 92 91 90 90 87 81 74 70 75 75 72 67 61 60 60 59 58
174 173 174 186 183 183 186 185 184 158 143 125 116 118 125 117 111 110 112 115 113 105 106 93 88 90 94 98 96 89 83 76 69 68 74 70 66 63 58 56 56 53 50
185 178 180 188 183 181 180 179 183 151 142 143 129 122 128 122 116 109 108 109 104 99 96 95 98 100 101 98 96 90 84 76 67 59 70 74 64 57 54 53 51 47 45
187 193 188 183 176 182 179 183 186 175 155 154 149 132 126 124 118 110 107 105 102 106 110 106 103 104 107 106 98 92 83 75 63 56 57 74 65 49 41 37 45 41 27
194 190 195 186 186 187 191 194 184 165 181 180 173 157 140 139 126 118 116 118 123 126 116 112 110 106 106 110 102 94 84 69 58 52 46 61 58 46 35 29 13 8 13
190 195 195 195 194 186 184 190 185 167 176 185 174 180 165 138 134 131 128 128 127 124 119 113 114 110 110 107 101 98 83 67 53 44 41 37 29 37 37 19 10 10 11
194 195 196 198 195 191 183 187 187 186 180 182 165 161 166 154 149 149 152 151 145 140 134 127 129 129 123 128 126 109 88 62 33 21 20 14 9 11 37 27 5 358 343
197 201 200 200 198 198 191 184 186 190 193 195 186 177 177 173 171 171 174 167 160 156 159 171 191 216 239 240 241 238 244 266 299 321 336 346 350 352 31 352 330 323 295
204 206 206 209 203 200 200 197 194 193 193 193 194 188 182 183 182 189 191 186 182 188 191 205 241 264 270 268 264 258 262 268 277 289 296 314 325 331 317 300 302 310 272
208 209 209 212 212 206 208 207 207 201 200 199 197 192 192 195 199 200 204 205 203 208 214 227 244 259 267 271 272 271 265 269 273 279 283 292 297 301 299 286 293 287 273
212 214 212 215 215 213 214 214 213 214 208 206 204 199 198 203 207 209 213 216 218 222 230 245 255 261 267 272 276 275 271 270 272 277 280 284 287 287 290 286 290 275 283
215 217 218 217 217 216 216 219 220 219 219 215 209 210 212 212 215 217 219 224 227 233 242 252 259 263 267 271 273 276 276 276 276 277 279 280 283 284 287 289 290 291 295
221 221 221 221 222 220 220 222 223 224 224 224 221 219 219 221 224 225 228 230 236 241 247 254 261 266 270 273 276 277 278 277 278 278 278 279 281 281 284 287 284 291 297
223 225 226 227 226 225 225 225 226 227 230 229 229 229 226 228 231 234 235 234 239 246 251 256 261 267 272 274 277 275 277 278 278 276 278 279 283 290 286 291 284 288 296
224 226 229 231 232 230 230 231 231 230 231 231 231 234 235 237 239 242 243 241 245 250 254 258 264 269 273 273 275 276 277 278 277 279 281 280 282 279 278 279 279 282 277
228 228 228 229 231 231 231 230 232 233 234 237 237 238 239 242 243 247 249 248 249 253 258 261 263 264 268 273 277 280 281 280 280 284 284 277 276 278 274 276 277 279 276
232 231 231 231 232 233 235 238 241 245 246 247 247 248 249 249 250 251 255 255 254 256 258 260 263 267 271 272 272 280 288 290 291 293 291 287 272 271 274 274 271 271 273
234 233 233 234 235 236 237 239 241 246 249 247 246 246 248 252 255 257 259 261 260 260 263 265 266 268 273 275 274 271 274 278 289 292 289 286 282 269 268 273 268 269 271
235 233 238 240 239 239 238 240 242 245 249 253 255 257 258 258 260 262 264 265 266 266 266 270 271 271 271 273 275 273 271 272 275 285 280 279 274 280 277 269 282 273 268
240 241 243 243 244 243 241 240 244 247 251 254 257 258 258 260 260 262 264 266 267 270 271 271 273 272 272 271 272 274 276 274 273 269 277 277 276 278 279 274 274 273 276
242 241 242 241 245 242 240 240 242 246 249 252 254 258 261 262 264 267 271 273 275 276 276 277 276 275 274 273 272 273 272 269 268 271 273 279 278 283 283 278 273 274 275